START_TIME,STEP,MOV.,M34,t_acc.,L5,t_acc.,L18,t_acc.,L14,t_acc.
1989-08-27T18:00:25.220 ,7,0,0.,12.0,0.,12.0,0.,12.0,0.,12.0
1989-08-27T18:00:37.220 ,7,0,0.,12.0,0.,12.0,0.,12.0,0.,12.0
1989-08-27T18:00:49.220 ,7,1,0.,12.0,0.,12.0,0.,12.0,0.,12.0
1989-08-27T18:01:01.220 ,7,1,0.,12.0,0.,12.0,0.,12.0,0.,12.0
1989-08-27T18:01:13.220 ,7,0,0.,12.0,0.,12.0,0.,12.0,0.,12.0
1989-08-27T18:01:25.220 ,7,0,0.,12.0,0.,12.0,0.,12.0,0.,12.0
1989-08-27T18:01:37.220 ,6,1,0.,12.0,0.,12.0,0.,12.0,0.,12.0
1989-08-27T18:01:49.220 ,6,1,0.,12.0,0.,12.0,0.,12.0,0.,12.0
1989-08-27T18:02:01.220 ,6,0,0.,12.0,0.,12.0,0.,12.0,0.,12.0
1989-08-27T18:02:13.220 ,6,0,0.,12.0,0.,12.0,0.,12.0,0.,12.0
1989-08-27T18:02:25.220 ,5,1,0.,12.0,0.,12.0,0.,12.0,0.,12.0
1989-08-27T18:02:37.220 ,5,1,0.,12.0,0.,12.0,0.,12.0,0.,12.0
1989-08-27T18:02:49.220 ,5,0,0.,12.0,0.,12.0,0.,12.0,0.,12.0
1989-08-27T18:03:01.220 ,5,0,0.,12.0,0.,12.0,0.,12.0,0.,12.0
1989-08-27T18:03:13.220 ,4,1,0.,12.0,0.,12.0,0.,12.0,0.,12.0
1989-08-27T18:03:25.220 ,4,1,0.,12.0,0.,12.0,0.,12.0,0.,12.0
1989-08-27T18:03:37.220 ,4,0,0.,12.0,0.,12.0,0.,12.0,0.,12.0
1989-08-27T18:03:49.220 ,4,0,0.,12.0,0.,12.0,0.,12.0,0.,12.0
1989-08-27T18:04:01.220 ,3,1,0.,12.0,0.,12.0,0.,12.0,0.,12.0
1989-08-27T18:04:13.220 ,3,1,0.,12.0,0.,12.0,0.,12.0,0.,12.0
1989-08-27T18:04:25.220 ,3,0,0.,12.0,0.,12.0,0.,12.0,0.,12.0
1989-08-27T18:04:37.220 ,3,0,0.,12.0,0.,12.0,0.,12.0,0.,12.0
1989-08-27T18:04:49.220 ,2,1,0.,12.0,0.,12.0,0.,12.0,0.,12.0
1989-08-27T18:05:01.220 ,2,1,0.,12.0,0.,12.0,0.,12.0,0.,12.0
1989-08-27T18:05:13.220 ,2,0,0.,12.0,0.,12.0,0.,12.0,0.,12.0
1989-08-27T18:05:25.220 ,2,0,0.,12.0,0.,12.0,0.,12.0,0.,12.0
1989-08-27T18:05:37.220 ,1,1,0.,12.0,0.,12.0,0.,12.0,0.,12.0
1989-08-27T18:05:49.220 ,1,1,0.,12.0,0.,12.0,0.,12.0,0.,12.0
1989-08-27T18:06:01.220 ,1,0,0.,12.0,0.,12.0,0.,12.0,0.,12.0
1989-08-27T18:06:13.220 ,1,0,0.,12.0,0.,12.0,0.,12.0,0.,12.0
1989-08-27T18:06:25.220 ,0,1,0.,12.0,0.,12.0,0.,12.0,0.,12.0
1989-08-27T18:06:37.220 ,0,1,0.,12.0,0.,12.0,0.,12.0,0.,12.0
1989-08-27T18:06:49.220 ,0,0,0.,12.0,0.,12.0,0.,12.0,0.,12.0
1989-08-27T18:07:01.220 ,0,0,0.,12.0,0.,12.0,0.,12.0,0.,12.0
1989-08-27T18:07:13.220 ,0,1,0.,12.0,0.,12.0,0.,12.0,0.,12.0
1989-08-27T18:07:25.220 ,0,1,0.,12.0,0.,12.0,0.,12.0,0.,12.0
1989-08-27T18:07:37.220 ,0,0,0.,12.0,0.,12.0,0.,12.0,0.,12.0
1989-08-27T18:07:49.220 ,0,0,0.,12.0,0.,12.0,0.,12.0,0.,12.0
1989-08-27T18:08:01.220 ,1,1,0.,12.0,0.,12.0,0.,12.0,0.,12.0
1989-08-27T18:08:13.220 ,1,1,0.,12.0,0.,12.0,0.,12.0,0.,12.0
1989-08-27T18:08:25.220 ,1,0,0.,12.0,0.,12.0,0.,12.0,0.,12.0
1989-08-27T18:08:37.220 ,1,0,0.,12.0,0.,12.0,0.,12.0,0.,12.0
1989-08-27T18:08:49.220 ,2,1,0.,12.0,0.,12.0,0.,12.0,0.,12.0
1989-08-27T18:09:01.220 ,2,1,0.,12.0,0.,12.0,0.,12.0,0.,12.0
1989-08-27T18:09:13.220 ,2,0,0.,12.0,0.,12.0,0.,12.0,0.,12.0
1989-08-27T18:09:25.220 ,2,0,0.,12.0,0.,12.0,0.,12.0,0.,12.0
1989-08-27T18:09:37.220 ,3,1,0.,12.0,0.,12.0,0.,12.0,0.,12.0
1989-08-27T18:09:49.220 ,3,1,0.,12.0,0.,12.0,0.,12.0,0.,12.0
1989-08-27T18:10:01.220 ,3,0,0.,12.0,0.,12.0,0.,12.0,0.,12.0
1989-08-27T18:10:13.220 ,3,0,0.,12.0,0.,12.0,0.,12.0,0.,12.0
1989-08-27T18:10:25.220 ,4,1,0.,12.0,0.,12.0,0.,12.0,0.,12.0
1989-08-27T18:10:37.220 ,4,1,0.,12.0,0.,12.0,0.,12.0,0.,12.0
1989-08-27T18:10:49.220 ,4,0,0.,12.0,0.,12.0,0.,12.0,0.,12.0
1989-08-27T18:11:01.220 ,4,0,0.,12.0,0.,12.0,0.,12.0,0.,12.0
1989-08-27T18:11:13.220 ,5,1,0.,12.0,0.,12.0,0.,12.0,0.,12.0
1989-08-27T18:11:25.220 ,5,1,0.,12.0,0.,12.0,0.,12.0,0.,12.0
1989-08-27T18:11:37.220 ,0,0,0.,12.0,0.,12.0,0.,12.0,0.,12.0
1989-08-27T18:11:49.220 ,0,0,0.,12.0,0.,12.0,0.,12.0,0.,12.0
1989-08-27T18:12:00.620 ,0,0,,0,,0,,0,,0
1989-08-27T18:12:12.620 ,0,0,,0,,0,,0,,0
1989-08-27T18:12:01.220 ,6,1,0.,12.0,0.,12.0,0.,12.0,0.,12.0
1989-08-27T18:12:13.220 ,6,1,0.,12.0,0.,12.0,0.,12.0,0.,12.0
1989-08-27T18:12:25.220 ,6,0,0.,12.0,0.,12.0,0.,12.0,0.,12.0
1989-08-27T18:12:37.220 ,6,0,0.,12.0,0.,12.0,0.,12.0,0.,12.0
1989-08-27T18:12:49.220 ,7,1,0.,12.0,0.,12.0,0.,12.0,0.,12.0
1989-08-27T18:13:01.220 ,7,1,0.,12.0,0.,12.0,0.,12.0,0.,12.0
1989-08-27T18:13:13.220 ,7,0,0.,12.0,0.,12.0,0.,12.0,0.,12.0
1989-08-27T18:13:25.220 ,7,0,0.,12.0,0.,12.0,0.,12.0,0.,12.0
1989-08-27T18:13:37.220 ,7,1,0.,12.0,0.,12.0,0.,12.0,0.,12.0
1989-08-27T18:13:49.220 ,7,1,0.,12.0,0.,12.0,0.,12.0,0.,12.0
1989-08-27T18:14:01.220 ,7,0,0.,12.0,0.,12.0,0.,12.0,0.,12.0
1989-08-27T18:14:13.220 ,7,0,0.,12.0,0.,12.0,0.,12.0,0.,12.0
1989-08-27T18:14:25.220 ,6,1,0.,12.0,0.,12.0,0.,12.0,0.,12.0
1989-08-27T18:14:37.220 ,6,1,0.,12.0,0.,12.0,0.,12.0,0.,12.0
1989-08-27T18:14:49.220 ,6,0,0.,12.0,0.,12.0,0.,12.0,0.,12.0
1989-08-27T18:15:01.220 ,6,0,0.,12.0,0.,12.0,0.,12.0,0.,12.0
1989-08-27T18:15:13.220 ,5,1,0.,12.0,0.,12.0,0.,12.0,0.,12.0
1989-08-27T18:15:25.220 ,5,1,0.,12.0,0.,12.0,0.,12.0,0.,12.0
1989-08-27T18:15:37.220 ,0,0,0.,12.0,0.,12.0,0.,12.0,0.,12.0
1989-08-27T18:15:49.220 ,0,0,0.,12.0,0.,12.0,0.,12.0,0.,12.0
1989-08-27T18:18:27.620 ,0,0,,0,,0,,0,,0
1989-08-27T18:18:39.620 ,0,0,0.,12.0,0.,12.0,0.,12.0,0.,12.0
1989-08-27T18:18:49.220 ,0,0,0.,12.0,0.,12.0,0.,12.0,0.,12.0
1989-08-27T18:19:01.220 ,0,0,0.,12.0,0.,12.0,0.,12.0,0.,12.0
1989-08-27T18:19:13.220 ,0,1,0.,12.0,0.,12.0,0.,12.0,0.,12.0
1989-08-27T18:19:25.220 ,0,1,0.,12.0,0.,12.0,0.,12.0,0.,12.0
1989-08-27T18:19:37.220 ,0,0,0.,12.0,0.,12.0,0.,12.0,0.,12.0
1989-08-27T18:19:49.220 ,0,0,0.,12.0,0.,12.0,0.,12.0,0.,12.0
1989-08-27T18:20:01.220 ,0,1,0.,12.0,0.,12.0,0.,12.0,0.,12.0
1989-08-27T18:20:13.220 ,0,1,0.,12.0,0.,12.0,0.,12.0,0.,12.0
1989-08-27T18:20:25.220 ,0,0,0.,12.0,0.,12.0,0.,12.0,0.,12.0
1989-08-27T18:20:37.220 ,0,0,0.,12.0,0.,12.0,0.,12.0,0.,12.0
1989-08-27T18:20:49.220 ,1,1,0.,12.0,0.,12.0,0.,12.0,0.,12.0
1989-08-27T18:21:01.220 ,1,1,0.,12.0,1.,12.0,0.,12.0,0.,12.0
1989-08-27T18:21:13.220 ,1,0,0.,12.0,0.,12.0,0.,12.0,0.,12.0
1989-08-27T18:21:25.220 ,1,0,0.,12.0,0.,12.0,0.,12.0,0.,12.0
1989-08-27T18:21:37.220 ,2,1,0.,12.0,0.,12.0,0.,12.0,0.,12.0
1989-08-27T18:21:49.220 ,2,1,0.,12.0,0.,12.0,0.,12.0,0.,12.0
1989-08-27T18:22:01.220 ,2,0,0.,12.0,0.,12.0,0.,12.0,0.,12.0
1989-08-27T18:22:13.220 ,2,0,0.,12.0,0.,12.0,0.,12.0,0.,12.0
1989-08-27T18:22:25.220 ,3,1,0.,12.0,0.,12.0,0.,12.0,0.,12.0
1989-08-27T18:22:37.220 ,3,1,0.,12.0,0.,12.0,0.,12.0,0.,12.0
1989-08-27T18:22:49.220 ,3,0,0.,12.0,0.,12.0,0.,12.0,0.,12.0
1989-08-27T18:23:01.220 ,3,0,0.,12.0,0.,12.0,0.,12.0,0.,12.0
1989-08-27T18:23:13.220 ,4,1,0.,12.0,0.,12.0,0.,12.0,0.,12.0
1989-08-27T18:23:25.220 ,4,1,0.,12.0,0.,12.0,0.,12.0,0.,12.0
1989-08-27T18:23:37.220 ,0,0,0.,12.0,0.,12.0,0.,12.0,0.,12.0
1989-08-27T18:23:49.220 ,0,0,0.,12.0,0.,12.0,0.,12.0,0.,12.0
1989-08-27T18:24:39.620 ,0,0,,0,,0,,0,,0
1989-08-27T18:24:51.620 ,0,0,,0,,0,,0,,0
1989-08-27T18:24:49.220 ,6,1,0.,12.0,0.,12.0,0.,12.0,0.,12.0
1989-08-27T18:25:01.220 ,6,1,0.,12.0,0.,12.0,0.,12.0,0.,12.0
1989-08-27T18:25:13.220 ,6,0,0.,12.0,0.,12.0,0.,12.0,0.,12.0
1989-08-27T18:25:25.220 ,6,0,0.,12.0,0.,12.0,0.,12.0,0.,12.0
1989-08-27T18:25:37.220 ,7,1,0.,12.0,0.,12.0,0.,12.0,0.,12.0
1989-08-27T18:25:49.220 ,7,1,0.,12.0,0.,12.0,0.,12.0,0.,12.0
1989-08-27T18:26:01.220 ,7,0,0.,12.0,0.,12.0,0.,12.0,0.,12.0
1989-08-27T18:26:13.220 ,7,0,0.,12.0,0.,12.0,0.,12.0,0.,12.0
1989-08-27T18:26:25.220 ,7,1,0.,12.0,0.,12.0,0.,12.0,0.,12.0
1989-08-27T18:26:37.220 ,7,1,0.,12.0,0.,12.0,0.,12.0,0.,12.0
1989-08-27T18:26:49.220 ,7,0,0.,12.0,0.,12.0,0.,12.0,0.,12.0
1989-08-27T18:27:01.220 ,7,0,0.,12.0,0.,12.0,0.,12.0,0.,12.0
1989-08-27T18:27:13.220 ,6,1,0.,12.0,0.,12.0,0.,12.0,0.,12.0
1989-08-27T18:27:25.220 ,6,1,0.,12.0,0.,12.0,0.,12.0,0.,12.0
1989-08-27T18:27:37.220 ,6,0,0.,12.0,0.,12.0,0.,12.0,0.,12.0
1989-08-27T18:27:49.220 ,6,0,0.,12.0,0.,12.0,0.,12.0,0.,12.0
1989-08-27T18:28:01.220 ,5,1,0.,12.0,0.,12.0,0.,12.0,0.,12.0
1989-08-27T18:28:13.220 ,5,1,0.,12.0,0.,12.0,0.,12.0,0.,12.0
1989-08-27T18:28:25.220 ,5,0,0.,12.0,0.,12.0,0.,12.0,0.,12.0
1989-08-27T18:28:37.220 ,5,0,0.,12.0,0.,12.0,0.,12.0,0.,12.0
1989-08-27T18:28:49.220 ,4,1,0.,12.0,0.,12.0,0.,12.0,0.,12.0
1989-08-27T18:29:01.220 ,4,1,0.,12.0,0.,12.0,0.,12.0,0.,12.0
1989-08-27T18:29:13.220 ,4,0,0.,12.0,0.,12.0,0.,12.0,0.,12.0
1989-08-27T18:29:25.220 ,4,0,0.,12.0,0.,12.0,0.,12.0,0.,12.0
1989-08-27T18:29:37.220 ,3,1,0.,12.0,0.,12.0,0.,12.0,0.,12.0
1989-08-27T18:29:49.220 ,3,1,0.,12.0,0.,12.0,0.,12.0,0.,12.0
1989-08-27T18:30:01.220 ,3,0,0.,12.0,0.,12.0,0.,12.0,0.,12.0
1989-08-27T18:30:13.220 ,3,0,0.,12.0,0.,12.0,0.,12.0,0.,12.0
1989-08-27T18:30:25.220 ,2,1,0.,12.0,0.,12.0,0.,12.0,0.,12.0
1989-08-27T18:30:37.220 ,2,1,0.,12.0,0.,12.0,0.,12.0,0.,12.0
1989-08-27T18:30:49.220 ,2,0,0.,12.0,0.,12.0,0.,12.0,0.,12.0
1989-08-27T18:31:01.220 ,2,0,0.,12.0,0.,12.0,0.,12.0,0.,12.0
1989-08-27T18:31:13.220 ,1,1,0.,12.0,0.,12.0,0.,12.0,0.,12.0
1989-08-27T18:31:25.220 ,1,1,0.,12.0,0.,12.0,0.,12.0,0.,12.0
1989-08-27T18:31:37.220 ,1,0,0.,12.0,0.,12.0,0.,12.0,0.,12.0
1989-08-27T18:31:49.220 ,1,0,0.,12.0,0.,12.0,0.,12.0,0.,12.0
1989-08-27T18:32:01.220 ,0,1,0.,12.0,0.,12.0,0.,12.0,0.,12.0
1989-08-27T18:32:13.220 ,0,1,0.,12.0,0.,12.0,0.,12.0,0.,12.0
1989-08-27T18:32:25.220 ,0,0,0.,12.0,0.,12.0,0.,12.0,0.,12.0
1989-08-27T18:32:37.220 ,0,0,0.,12.0,0.,12.0,0.,12.0,0.,12.0
1989-08-27T18:32:49.220 ,0,1,0.,12.0,0.,12.0,0.,12.0,0.,12.0
1989-08-27T18:33:01.220 ,0,1,0.,12.0,0.,12.0,0.,12.0,0.,12.0
1989-08-27T18:33:13.220 ,0,0,0.,12.0,0.,12.0,0.,12.0,0.,12.0
1989-08-27T18:33:25.220 ,0,0,0.,12.0,0.,12.0,0.,12.0,0.,12.0
1989-08-27T18:33:37.220 ,1,1,0.,12.0,0.,12.0,0.,12.0,0.,12.0
1989-08-27T18:33:49.220 ,1,1,0.,12.0,0.,12.0,0.,12.0,0.,12.0
1989-08-27T18:34:01.220 ,1,0,0.,12.0,0.,12.0,0.,12.0,0.,12.0
1989-08-27T18:34:13.220 ,1,0,0.,12.0,0.,12.0,0.,12.0,0.,12.0
1989-08-27T18:34:25.220 ,2,1,0.,12.0,0.,12.0,0.,12.0,0.,12.0
1989-08-27T18:34:37.220 ,2,1,0.,12.0,0.,12.0,0.,12.0,0.,12.0
1989-08-27T18:34:49.220 ,2,0,0.,12.0,0.,12.0,0.,12.0,0.,12.0
1989-08-27T18:35:01.220 ,2,0,0.,12.0,0.,12.0,0.,12.0,0.,12.0
1989-08-27T18:35:13.220 ,3,1,0.,12.0,0.,12.0,0.,12.0,0.,12.0
1989-08-27T18:35:25.220 ,3,1,0.,12.0,0.,12.0,0.,12.0,0.,12.0
1989-08-27T18:35:37.220 ,3,0,0.,12.0,0.,12.0,0.,12.0,0.,12.0
1989-08-27T18:35:49.220 ,3,0,0.,12.0,0.,12.0,0.,12.0,0.,12.0
1989-08-27T18:36:01.220 ,4,1,0.,12.0,0.,12.0,0.,12.0,0.,12.0
1989-08-27T18:36:13.220 ,4,1,0.,12.0,0.,12.0,0.,12.0,0.,12.0
1989-08-27T18:36:25.220 ,4,0,0.,12.0,0.,12.0,0.,12.0,0.,12.0
1989-08-27T18:36:37.220 ,4,0,0.,12.0,0.,12.0,0.,12.0,0.,12.0
1989-08-27T18:36:49.220 ,5,1,0.,12.0,0.,12.0,0.,12.0,0.,12.0
1989-08-27T18:37:01.220 ,5,1,0.,12.0,0.,12.0,0.,12.0,0.,12.0
1989-08-27T18:37:13.220 ,5,0,0.,12.0,0.,12.0,0.,12.0,0.,12.0
1989-08-27T18:37:25.220 ,5,0,0.,12.0,0.,12.0,0.,12.0,0.,12.0
1989-08-27T18:37:37.220 ,6,1,0.,12.0,0.,12.0,0.,12.0,0.,12.0
1989-08-27T18:37:49.220 ,6,1,0.,12.0,0.,12.0,0.,12.0,0.,12.0
1989-08-27T18:38:01.220 ,6,0,0.,12.0,0.,12.0,0.,12.0,0.,12.0
1989-08-27T18:38:13.220 ,6,0,0.,12.0,0.,12.0,0.,12.0,0.,12.0
1989-08-27T18:38:25.220 ,7,1,0.,12.0,0.,12.0,0.,12.0,0.,12.0
1989-08-27T18:38:37.220 ,7,1,0.,12.0,0.,12.0,0.,12.0,0.,12.0
1989-08-27T18:38:49.220 ,7,0,0.,12.0,0.,12.0,0.,12.0,0.,12.0
1989-08-27T18:39:01.220 ,7,0,0.,12.0,0.,12.0,0.,12.0,0.,12.0
1989-08-27T18:39:13.220 ,7,1,0.,12.0,0.,12.0,0.,12.0,0.,12.0
1989-08-27T18:39:25.220 ,7,1,0.,12.0,0.,12.0,0.,12.0,0.,12.0
1989-08-27T18:39:37.220 ,7,0,0.,12.0,0.,12.0,0.,12.0,0.,12.0
1989-08-27T18:39:49.220 ,7,0,0.,12.0,0.,12.0,0.,12.0,0.,12.0
1989-08-27T18:40:01.220 ,6,1,0.,12.0,0.,12.0,0.,12.0,0.,12.0
1989-08-27T18:40:13.220 ,6,1,0.,12.0,0.,12.0,0.,12.0,0.,12.0
1989-08-27T18:40:25.220 ,6,0,0.,12.0,0.,12.0,0.,12.0,0.,12.0
1989-08-27T18:40:37.220 ,6,0,0.,12.0,0.,12.0,0.,12.0,0.,12.0
1989-08-27T18:40:49.220 ,5,1,0.,12.0,0.,12.0,0.,12.0,0.,12.0
1989-08-27T18:41:01.220 ,5,1,0.,12.0,0.,12.0,0.,12.0,0.,12.0
1989-08-27T18:41:13.220 ,5,0,0.,12.0,0.,12.0,0.,12.0,0.,12.0
1989-08-27T18:41:25.220 ,5,0,0.,12.0,0.,12.0,0.,12.0,0.,12.0
1989-08-27T18:41:37.220 ,4,1,0.,12.0,0.,12.0,0.,12.0,0.,12.0
1989-08-27T18:41:49.220 ,4,1,0.,12.0,0.,12.0,0.,12.0,0.,12.0
1989-08-27T18:42:01.220 ,4,0,0.,12.0,0.,12.0,0.,12.0,0.,12.0
1989-08-27T18:42:13.220 ,4,0,0.,12.0,0.,12.0,0.,12.0,0.,12.0
1989-08-27T18:42:25.220 ,3,1,0.,12.0,0.,12.0,0.,12.0,0.,12.0
1989-08-27T18:42:37.220 ,3,1,0.,12.0,0.,12.0,0.,12.0,0.,12.0
1989-08-27T18:42:49.220 ,3,0,0.,12.0,0.,12.0,0.,12.0,0.,12.0
1989-08-27T18:43:01.220 ,3,0,0.,12.0,0.,12.0,0.,12.0,0.,12.0
1989-08-27T18:43:13.220 ,2,1,0.,12.0,0.,12.0,0.,12.0,0.,12.0
1989-08-27T18:43:25.220 ,2,1,0.,12.0,0.,12.0,0.,12.0,0.,12.0
1989-08-27T18:43:37.220 ,2,0,0.,12.0,0.,12.0,0.,12.0,0.,12.0
1989-08-27T18:43:49.220 ,2,0,0.,12.0,0.,12.0,0.,12.0,0.,12.0
1989-08-27T18:44:01.220 ,1,1,0.,12.0,0.,12.0,0.,12.0,0.,12.0
1989-08-27T18:44:13.220 ,1,1,0.,12.0,0.,12.0,0.,12.0,0.,12.0
1989-08-27T18:44:25.220 ,1,0,0.,12.0,0.,12.0,0.,12.0,0.,12.0
1989-08-27T18:44:37.220 ,1,0,0.,12.0,0.,12.0,0.,12.0,0.,12.0
1989-08-27T18:44:49.220 ,0,1,0.,12.0,0.,12.0,0.,12.0,0.,12.0
1989-08-27T18:45:01.220 ,0,1,0.,12.0,0.,12.0,0.,12.0,0.,12.0
1989-08-27T18:45:13.220 ,0,0,0.,12.0,0.,12.0,0.,12.0,0.,12.0
1989-08-27T18:45:25.220 ,0,0,0.,12.0,0.,12.0,0.,12.0,0.,12.0
1989-08-27T18:45:37.220 ,0,1,0.,12.0,0.,12.0,0.,12.0,0.,12.0
1989-08-27T18:45:49.220 ,0,1,0.,12.0,0.,12.0,0.,12.0,0.,12.0
1989-08-27T18:46:01.220 ,0,0,0.,12.0,0.,12.0,0.,12.0,0.,12.0
1989-08-27T18:46:13.220 ,0,0,0.,12.0,0.,12.0,0.,12.0,0.,12.0
1989-08-27T18:46:25.220 ,1,1,0.,12.0,0.,12.0,0.,12.0,0.,12.0
1989-08-27T18:46:37.220 ,1,1,0.,12.0,0.,12.0,0.,12.0,0.,12.0
1989-08-27T18:46:49.220 ,1,0,0.,12.0,0.,12.0,0.,12.0,0.,12.0
1989-08-27T18:47:01.220 ,1,0,0.,12.0,0.,12.0,0.,12.0,0.,12.0
1989-08-27T18:47:13.220 ,2,1,0.,12.0,0.,12.0,0.,12.0,0.,12.0
1989-08-27T18:47:25.220 ,2,1,0.,12.0,0.,12.0,0.,12.0,0.,12.0
1989-08-27T18:47:37.220 ,2,0,0.,12.0,0.,12.0,0.,12.0,0.,12.0
1989-08-27T18:47:49.220 ,2,0,0.,12.0,0.,12.0,0.,12.0,0.,12.0
1989-08-27T18:48:01.220 ,3,1,0.,12.0,0.,12.0,0.,12.0,0.,12.0
1989-08-27T18:48:13.220 ,3,1,0.,12.0,0.,12.0,0.,12.0,0.,12.0
1989-08-27T18:48:25.220 ,3,0,0.,12.0,0.,12.0,0.,12.0,0.,12.0
1989-08-27T18:48:37.220 ,3,0,0.,12.0,0.,12.0,0.,12.0,0.,12.0
1989-08-27T18:48:49.220 ,4,1,0.,12.0,0.,12.0,0.,12.0,0.,12.0
1989-08-27T18:49:01.220 ,4,1,0.,12.0,0.,12.0,0.,12.0,0.,12.0
1989-08-27T18:49:13.220 ,4,0,0.,12.0,0.,12.0,0.,12.0,0.,12.0
1989-08-27T18:49:25.220 ,4,0,0.,12.0,0.,12.0,0.,12.0,0.,12.0
1989-08-27T18:49:37.220 ,5,1,0.,12.0,0.,12.0,0.,12.0,0.,12.0
1989-08-27T18:49:49.220 ,5,1,0.,12.0,0.,12.0,0.,12.0,0.,12.0
1989-08-27T18:50:01.220 ,5,0,0.,12.0,0.,12.0,0.,12.0,0.,12.0
1989-08-27T18:50:13.220 ,5,0,0.,12.0,0.,12.0,0.,12.0,0.,12.0
1989-08-27T18:50:25.220 ,6,1,0.,12.0,0.,12.0,0.,12.0,0.,12.0
1989-08-27T18:50:37.220 ,6,1,0.,12.0,0.,12.0,0.,12.0,0.,12.0
1989-08-27T18:50:49.220 ,6,0,0.,12.0,0.,12.0,0.,12.0,0.,12.0
1989-08-27T18:51:01.220 ,6,0,0.,12.0,0.,12.0,0.,12.0,0.,12.0
1989-08-27T18:51:13.220 ,7,1,0.,12.0,0.,12.0,0.,12.0,0.,12.0
1989-08-27T18:51:25.220 ,7,1,0.,12.0,0.,12.0,0.,12.0,0.,12.0
1989-08-27T18:51:37.220 ,7,0,0.,12.0,0.,12.0,0.,12.0,0.,12.0
1989-08-27T18:51:49.220 ,7,0,0.,12.0,0.,12.0,0.,12.0,0.,12.0
1989-08-27T18:52:01.220 ,7,1,0.,12.0,0.,12.0,0.,12.0,0.,12.0
1989-08-27T18:52:13.220 ,7,1,0.,12.0,0.,12.0,0.,12.0,0.,12.0
1989-08-27T18:52:25.220 ,7,0,0.,12.0,0.,12.0,0.,12.0,0.,12.0
1989-08-27T18:52:37.220 ,7,0,0.,12.0,0.,12.0,0.,12.0,0.,12.0
1989-08-27T18:52:49.220 ,6,1,0.,12.0,0.,12.0,0.,12.0,0.,12.0
1989-08-27T18:53:01.220 ,6,1,0.,12.0,0.,12.0,0.,12.0,0.,12.0
1989-08-27T18:53:13.220 ,6,0,0.,12.0,0.,12.0,0.,12.0,0.,12.0
1989-08-27T18:53:25.220 ,6,0,0.,12.0,0.,12.0,0.,12.0,0.,12.0
1989-08-27T18:53:37.220 ,5,1,0.,12.0,0.,12.0,0.,12.0,0.,12.0
1989-08-27T18:53:49.220 ,5,1,0.,12.0,0.,12.0,0.,12.0,0.,12.0
1989-08-27T18:54:01.220 ,5,0,0.,12.0,0.,12.0,0.,12.0,0.,12.0
1989-08-27T18:54:13.220 ,5,0,0.,12.0,0.,12.0,0.,12.0,0.,12.0
1989-08-27T18:54:25.220 ,4,1,0.,12.0,0.,12.0,0.,12.0,0.,12.0
1989-08-27T18:54:37.220 ,4,1,0.,12.0,0.,12.0,0.,12.0,0.,12.0
1989-08-27T18:54:49.220 ,4,0,0.,12.0,0.,12.0,0.,12.0,0.,12.0
1989-08-27T18:55:01.220 ,4,0,0.,12.0,0.,12.0,0.,12.0,0.,12.0
1989-08-27T18:55:13.220 ,3,1,0.,12.0,1.,12.0,0.,12.0,0.,12.0
1989-08-27T18:55:25.220 ,3,1,0.,12.0,0.,12.0,0.,12.0,0.,12.0
1989-08-27T18:55:37.220 ,3,0,0.,12.0,0.,12.0,0.,12.0,0.,12.0
1989-08-27T18:55:49.220 ,3,0,0.,12.0,0.,12.0,0.,12.0,0.,12.0
1989-08-27T18:56:01.220 ,2,1,0.,12.0,0.,12.0,0.,12.0,0.,12.0
1989-08-27T18:56:13.220 ,2,1,0.,12.0,0.,12.0,0.,12.0,0.,12.0
1989-08-27T18:56:25.220 ,2,0,0.,12.0,0.,12.0,0.,12.0,0.,12.0
1989-08-27T18:56:37.220 ,2,0,0.,12.0,0.,12.0,0.,12.0,0.,12.0
1989-08-27T18:56:49.220 ,1,1,0.,12.0,0.,12.0,0.,12.0,0.,12.0
1989-08-27T18:57:01.220 ,1,1,0.,12.0,0.,12.0,0.,12.0,0.,12.0
1989-08-27T18:57:13.220 ,1,0,0.,12.0,0.,12.0,0.,12.0,0.,12.0
1989-08-27T18:57:25.220 ,1,0,0.,12.0,0.,12.0,0.,12.0,0.,12.0
1989-08-27T18:57:37.220 ,0,1,0.,12.0,0.,12.0,0.,12.0,0.,12.0
1989-08-27T18:57:49.220 ,0,1,0.,12.0,0.,12.0,0.,12.0,0.,12.0
1989-08-27T18:58:01.220 ,0,0,0.,12.0,0.,12.0,0.,12.0,0.,12.0
1989-08-27T18:58:13.220 ,0,0,0.,12.0,0.,12.0,0.,12.0,0.,12.0
1989-08-27T18:58:25.220 ,0,1,0.,12.0,0.,12.0,0.,12.0,0.,12.0
1989-08-27T18:58:37.220 ,0,1,0.,12.0,0.,12.0,0.,12.0,0.,12.0
1989-08-27T18:58:49.220 ,0,0,0.,12.0,0.,12.0,0.,12.0,0.,12.0
1989-08-27T18:59:01.220 ,0,0,0.,12.0,0.,12.0,0.,12.0,0.,12.0
1989-08-27T18:59:13.220 ,1,1,0.,12.0,0.,12.0,0.,12.0,0.,12.0
1989-08-27T18:59:25.220 ,1,1,0.,12.0,0.,12.0,0.,12.0,0.,12.0
1989-08-27T18:59:37.220 ,1,0,0.,12.0,0.,12.0,0.,12.0,0.,12.0
1989-08-27T18:59:49.220 ,1,0,0.,12.0,0.,12.0,0.,12.0,0.,12.0
1989-08-27T19:00:01.220 ,2,1,0.,12.0,0.,12.0,0.,12.0,0.,12.0
1989-08-27T19:00:13.220 ,2,1,0.,12.0,0.,12.0,0.,12.0,0.,12.0
1989-08-27T19:00:25.220 ,2,0,0.,12.0,0.,12.0,0.,12.0,0.,12.0
1989-08-27T19:00:37.220 ,2,0,0.,12.0,0.,12.0,0.,12.0,0.,12.0
1989-08-27T19:00:49.220 ,3,1,0.,12.0,0.,12.0,0.,12.0,0.,12.0
1989-08-27T19:01:01.220 ,3,1,0.,12.0,0.,12.0,0.,12.0,0.,12.0
1989-08-27T19:01:13.220 ,3,0,0.,12.0,0.,12.0,0.,12.0,0.,12.0
1989-08-27T19:01:25.220 ,3,0,0.,12.0,0.,12.0,0.,12.0,0.,12.0
1989-08-27T19:01:37.220 ,4,1,0.,12.0,0.,12.0,0.,12.0,0.,12.0
1989-08-27T19:01:49.220 ,4,1,0.,12.0,0.,12.0,0.,12.0,0.,12.0
1989-08-27T19:02:01.220 ,4,0,0.,12.0,0.,12.0,0.,12.0,0.,12.0
1989-08-27T19:02:13.220 ,4,0,0.,12.0,0.,12.0,0.,12.0,0.,12.0
1989-08-27T19:02:25.220 ,5,1,0.,12.0,0.,12.0,0.,12.0,0.,12.0
1989-08-27T19:02:37.220 ,5,1,0.,12.0,0.,12.0,0.,12.0,0.,12.0
1989-08-27T19:02:49.220 ,5,0,0.,12.0,0.,12.0,0.,12.0,0.,12.0
1989-08-27T19:03:01.220 ,5,0,0.,12.0,0.,12.0,0.,12.0,0.,12.0
1989-08-27T19:03:13.220 ,6,1,0.,12.0,0.,12.0,0.,12.0,0.,12.0
1989-08-27T19:03:25.220 ,6,1,0.,12.0,0.,12.0,0.,12.0,0.,12.0
1989-08-27T19:03:37.220 ,6,0,0.,12.0,0.,12.0,0.,12.0,0.,12.0
1989-08-27T19:03:49.220 ,6,0,0.,12.0,0.,12.0,0.,12.0,0.,12.0
1989-08-27T19:04:01.220 ,7,1,0.,12.0,0.,12.0,0.,12.0,0.,12.0
1989-08-27T19:04:13.220 ,7,1,0.,12.0,0.,12.0,0.,12.0,0.,12.0
1989-08-27T19:04:25.220 ,7,0,0.,12.0,0.,12.0,0.,12.0,0.,12.0
1989-08-27T19:04:37.220 ,7,0,0.,12.0,0.,12.0,0.,12.0,0.,12.0
1989-08-27T19:04:49.220 ,7,1,0.,12.0,0.,12.0,0.,12.0,0.,12.0
1989-08-27T19:05:01.220 ,7,1,0.,12.0,0.,12.0,0.,12.0,0.,12.0
1989-08-27T19:05:13.220 ,7,0,0.,12.0,0.,12.0,0.,12.0,0.,12.0
1989-08-27T19:05:25.220 ,7,0,0.,12.0,0.,12.0,0.,12.0,0.,12.0
1989-08-27T19:05:37.220 ,6,1,0.,12.0,0.,12.0,0.,12.0,0.,12.0
1989-08-27T19:05:49.220 ,6,1,0.,12.0,0.,12.0,0.,12.0,0.,12.0
1989-08-27T19:06:01.220 ,6,0,0.,12.0,0.,12.0,0.,12.0,0.,12.0
1989-08-27T19:06:13.220 ,6,0,0.,12.0,0.,12.0,0.,12.0,0.,12.0
1989-08-27T19:06:25.220 ,5,1,0.,12.0,0.,12.0,0.,12.0,0.,12.0
1989-08-27T19:06:37.220 ,5,1,0.,12.0,0.,12.0,0.,12.0,0.,12.0
1989-08-27T19:06:49.220 ,5,0,0.,12.0,0.,12.0,0.,12.0,0.,12.0
1989-08-27T19:07:01.220 ,5,0,0.,12.0,0.,12.0,0.,12.0,0.,12.0
1989-08-27T19:07:13.220 ,4,1,0.,12.0,0.,12.0,0.,12.0,0.,12.0
1989-08-27T19:07:25.220 ,4,1,0.,12.0,0.,12.0,0.,12.0,0.,12.0
1989-08-27T19:07:37.220 ,4,0,0.,12.0,0.,12.0,0.,12.0,0.,12.0
1989-08-27T19:07:49.220 ,4,0,0.,12.0,0.,12.0,0.,12.0,0.,12.0
1989-08-27T19:08:01.220 ,3,1,0.,12.0,0.,12.0,0.,12.0,0.,12.0
1989-08-27T19:08:13.220 ,3,1,0.,12.0,0.,12.0,0.,12.0,0.,12.0
1989-08-27T19:08:25.220 ,3,0,0.,12.0,0.,12.0,0.,12.0,0.,12.0
1989-08-27T19:08:37.220 ,3,0,0.,12.0,0.,12.0,0.,12.0,0.,12.0
1989-08-27T19:08:49.220 ,2,1,0.,12.0,0.,12.0,0.,12.0,0.,12.0
1989-08-27T19:09:01.220 ,2,1,0.,12.0,0.,12.0,0.,12.0,0.,12.0
1989-08-27T19:09:13.220 ,2,0,0.,12.0,0.,12.0,0.,12.0,0.,12.0
1989-08-27T19:09:25.220 ,2,0,0.,12.0,0.,12.0,0.,12.0,0.,12.0
1989-08-27T19:09:37.220 ,1,1,0.,12.0,0.,12.0,0.,12.0,0.,12.0
1989-08-27T19:09:49.220 ,1,1,0.,12.0,0.,12.0,0.,12.0,0.,12.0
1989-08-27T19:10:01.220 ,1,0,0.,12.0,0.,12.0,0.,12.0,0.,12.0
1989-08-27T19:10:13.220 ,1,0,0.,12.0,0.,12.0,0.,12.0,0.,12.0
1989-08-27T19:10:25.220 ,0,1,0.,12.0,0.,12.0,0.,12.0,0.,12.0
1989-08-27T19:10:37.220 ,0,1,0.,12.0,0.,12.0,0.,12.0,0.,12.0
1989-08-27T19:10:49.220 ,0,0,0.,12.0,0.,12.0,0.,12.0,0.,12.0
1989-08-27T19:11:01.220 ,0,0,0.,12.0,0.,12.0,0.,12.0,0.,12.0
1989-08-27T19:11:13.220 ,0,1,0.,12.0,0.,12.0,0.,12.0,0.,12.0
1989-08-27T19:11:25.220 ,0,1,0.,12.0,0.,12.0,0.,12.0,0.,12.0
1989-08-27T19:11:37.220 ,0,0,0.,12.0,0.,12.0,0.,12.0,0.,12.0
1989-08-27T19:11:49.220 ,0,0,0.,12.0,0.,12.0,0.,12.0,0.,12.0
1989-08-27T19:12:01.220 ,1,1,0.,12.0,0.,12.0,0.,12.0,0.,12.0
1989-08-27T19:12:13.220 ,1,1,0.,12.0,0.,12.0,0.,12.0,0.,12.0
1989-08-27T19:12:25.220 ,1,0,0.,12.0,0.,12.0,0.,12.0,0.,12.0
1989-08-27T19:12:37.220 ,1,0,0.,12.0,0.,12.0,0.,12.0,0.,12.0
1989-08-27T19:12:49.220 ,2,1,0.,12.0,0.,12.0,0.,12.0,0.,12.0
1989-08-27T19:13:01.220 ,2,1,0.,12.0,0.,12.0,0.,12.0,0.,12.0
1989-08-27T19:13:13.220 ,2,0,0.,12.0,0.,12.0,0.,12.0,0.,12.0
1989-08-27T19:13:25.220 ,2,0,0.,12.0,0.,12.0,0.,12.0,0.,12.0
1989-08-27T19:13:37.220 ,3,1,0.,12.0,0.,12.0,0.,12.0,0.,12.0
1989-08-27T19:13:49.220 ,3,1,0.,12.0,0.,12.0,0.,12.0,0.,12.0
1989-08-27T19:14:01.220 ,3,0,0.,12.0,0.,12.0,0.,12.0,0.,12.0
1989-08-27T19:14:13.220 ,3,0,0.,12.0,0.,12.0,0.,12.0,0.,12.0
1989-08-27T19:14:25.220 ,4,1,0.,12.0,0.,12.0,0.,12.0,0.,12.0
1989-08-27T19:14:37.220 ,4,1,0.,12.0,0.,12.0,0.,12.0,0.,12.0
1989-08-27T19:14:49.220 ,4,0,0.,12.0,0.,12.0,0.,12.0,0.,12.0
1989-08-27T19:15:01.220 ,4,0,0.,12.0,0.,12.0,0.,12.0,0.,12.0
1989-08-27T19:15:13.220 ,5,1,0.,12.0,0.,12.0,0.,12.0,0.,12.0
1989-08-27T19:15:25.220 ,5,1,0.,12.0,0.,12.0,0.,12.0,0.,12.0
1989-08-27T19:15:37.220 ,5,0,0.,12.0,0.,12.0,0.,12.0,0.,12.0
1989-08-27T19:15:49.220 ,5,0,0.,12.0,0.,12.0,0.,12.0,0.,12.0
1989-08-27T19:16:01.220 ,6,1,0.,12.0,0.,12.0,0.,12.0,0.,12.0
1989-08-27T19:16:13.220 ,6,1,0.,12.0,0.,12.0,0.,12.0,0.,12.0
1989-08-27T19:16:25.220 ,6,0,0.,12.0,0.,12.0,0.,12.0,0.,12.0
1989-08-27T19:16:37.220 ,6,0,0.,12.0,0.,12.0,0.,12.0,0.,12.0
1989-08-27T19:16:49.220 ,7,1,0.,12.0,0.,12.0,0.,12.0,0.,12.0
1989-08-27T19:17:01.220 ,7,1,0.,12.0,0.,12.0,0.,12.0,0.,12.0
1989-08-27T19:17:13.220 ,7,0,0.,12.0,0.,12.0,0.,12.0,0.,12.0
1989-08-27T19:17:25.220 ,7,0,0.,12.0,0.,12.0,0.,12.0,0.,12.0
1989-08-27T19:17:37.220 ,7,1,0.,12.0,0.,12.0,0.,12.0,0.,12.0
1989-08-27T19:17:49.220 ,7,1,0.,12.0,0.,12.0,0.,12.0,0.,12.0
1989-08-27T19:18:01.220 ,7,0,0.,12.0,0.,12.0,0.,12.0,0.,12.0
1989-08-27T19:18:13.220 ,7,0,0.,12.0,0.,12.0,0.,12.0,0.,12.0
1989-08-27T19:18:25.220 ,6,1,0.,12.0,0.,12.0,0.,12.0,0.,12.0
1989-08-27T19:18:37.220 ,6,1,0.,12.0,0.,12.0,0.,12.0,0.,12.0
1989-08-27T19:18:49.220 ,6,0,0.,12.0,0.,12.0,0.,12.0,0.,12.0
1989-08-27T19:19:01.220 ,6,0,0.,12.0,0.,12.0,0.,12.0,0.,12.0
1989-08-27T19:19:13.220 ,5,1,0.,12.0,0.,12.0,0.,12.0,0.,12.0
1989-08-27T19:19:25.220 ,5,1,0.,12.0,0.,12.0,0.,12.0,0.,12.0
1989-08-27T19:19:37.220 ,5,0,0.,12.0,0.,12.0,0.,12.0,0.,12.0
1989-08-27T19:19:49.220 ,5,0,0.,12.0,0.,12.0,0.,12.0,0.,12.0
1989-08-27T19:20:03.020 ,4,1,0.,12.0,0.,12.0,0.,12.0,0.,12.0